COSMOS 2251 DEB

基本信息
目录编号:
35703
目录名称:
COSMOS 2251 DEB
国际标识:
1993-036APY
轨道中心:
EARTH
物体状态:
在轨
发射日期:
1993-06-16 UTC
轨道信息
数据来源: 国际轨道数据
星历时间: 2026-09-05T12:57:55+0800
半长轴: 6963.595km
偏心率: 0.0063797
轨道倾角: 74.038°
近地点辐角: 228.644°
升交点赤经: 227.594°
平近点角: 130.925°
近地点: 541.032km
远地点: 629.884km
周期: 96.385分钟
每日圈数: 14.940068
详细信息
发射场:
PKMTR
轨道高度:
LEO
数据来源:
AOE Integration Group
参考系:
TEME
时间系统:
UTC
历元类型:
SGP4
2D轨道图
3D轨道图
轨道高度分析图
轨道倾角分析图
轨道综合分析图
查看轨道综合分析图